Terug naar catalogus

BREEZE-M DEB

LostHEO
NORAD 34236·DEBRIS·🇷🇺 Russia

Gelanceerd Feb 28, 2006 vanaf Baikonur Cosmodrome

Loading…

Volgende Passages (komende 24 uur)

TLE

VerouderdSource: Space-Track

Epoch: Feb 17, 2026, 10:31 UTC

1 34236U 06006BB  26048.43884313  .00004582  00000-0  19347-2 0  9999
2 34236  51.6423 218.9090 4894716 247.2278  54.9809  5.70502861 40183

Volg BREEZE-M DEB in realtime met AllMySat

Download on the App Store